sat.trackr.live / text

‹ back to catalog

ZHONGXING-3A

NORAD 60179 · 2024-122A

PAYLOAD ACTIVE UNKNOWN

§ Identity

Operator
Country
PRC
Launch date
2024-06-29
Launch site
WSC
Launch vehicle
Mass (kg)
RCS (m²)

Purposes: comms

External: N2YO · Heavens-Above · Gunter

§ Orbital elements

Epoch: 2026-09-19T21:01:11.142624Z

Period
1,436.09 min
Inclination
0.0336°
Eccentricity
0.0002540
Mean motion
1.00272401 rev/d
Perigee alt
35,775.7 km
Apogee alt
35,797.1 km
Semi-major
42,164.6 km
B*
0.0000e+0
RAAN
12.4447°
Arg perigee
194.5650°
Mean anomaly
208.6353°
Rev number
825

§ Raw data

ZHONGXING-3A1 60179U 24122A   26262.87582341 -.00000318  00000+0  00000+0 0  99912 60179   0.0336  12.4447 0002540 194.5650 208.6353  1.00272401  8259

JSON: /api/v1/satellites/60179 · /tle

For live sub-satellite position, see the globe view (requires WebGL).

§ Visibility from observer

Set your observer location to see the next 7 days of passes ≥ 10°. The values pass through the URL so the page stays shareable.

No JS? Fill the form by hand. The geolocation button needs JavaScript.